Location: ??????????
(54.8537°N, 38.8755°E)
Time: 21:56:06
(UTC+00:00)

Tiros 1 - Pass Details

Date: 19 September 2024
Orbit: 623 x 654 km, 48.4° (Epoch: 09 October)

Event Time Altitude Azimuth Distance (km) Brightness Sun altitude
Rises 13:03:54 0° 239° (WSW) 2,895 12.2 19.5°
Reaches altitude 10° 13:06:23 10° 230° (SW) 1,991 11.6 19.2°
Maximum altitude 13:10:27 33° 167° (SSE) 1,064 8.6 18.7°
Drops below altitude 10° 13:14:33 10° 104° (ESE) 2,002 9.3 18.2°
Sets 13:17:03 0° 95° (E) 2,915 10.0 17.8°
